Time,TemperatureF,DewpointF,PressureIn,WindDirection,WindDirectionDegrees,WindSpeedMPH,WindSpeedGustMPH,Humidity,HourlyPrecipIn,Conditions,Clouds,dailyrainin,SoftwareType,DateUTC
2013-02-08 00:00:00,30.0,20.4,30.37,ENE,77,5.0,9.0,67,0.00,,BKN110,0.00,VWS V14.01,2013-02-08 05:00:00,
2013-02-08 00:01:00,30.0,20.4,30.37,ENE,77,5.0,9.0,67,0.00,,BKN110,0.00,VWS V14.01,2013-02-08 05:01:00,
2013-02-08 00:06:00,29.8,19.8,30.36,NE,56,5.0,8.0,66,0.00,,BKN110,0.00,VWS V14.01,2013-02-08 05:06:00,
2013-02-08 00:13:00,29.7,19.8,30.36,NE,50,4.0,5.0,66,0.00,,BKN110,0.00,VWS V14.01,2013-02-08 05:13:00,
2013-02-08 00:18:00,29.6,19.6,30.35,NE,44,3.0,9.0,66,0.00,,BKN110,0.00,VWS V14.01,2013-02-08 05:18:00,
2013-02-08 00:23:00,29.5,19.6,30.35,NE,44,6.0,9.0,66,0.00,,BKN110,0.00,VWS V14.01,2013-02-08 05:23:00,
2013-02-08 00:28:00,29.4,19.5,30.34,ENE,68,3.0,9.0,66,0.00,,BKN110,0.00,VWS V14.01,2013-02-08 05:28:00,
2013-02-08 00:33:00,29.3,19.0,30.34,NE,51,4.0,8.0,65,0.00,,BKN110,0.00,VWS V14.01,2013-02-08 05:33:00,
2013-02-08 00:38:00,29.3,19.4,30.34,ENE,60,4.0,8.0,66,0.00,,BKN110,0.00,VWS V14.01,2013-02-08 05:38:00,
2013-02-08 00:43:00,29.2,19.3,30.34,East,79,1.0,8.0,66,0.00,,BKN110,0.00,VWS V14.01,2013-02-08 05:43:00,
2013-02-08 00:48:00,29.2,19.3,30.33,ENE,59,3.0,8.0,66,0.00,,BKN110,0.00,VWS V14.01,2013-02-08 05:48:00,
2013-02-08 00:53:00,29.1,19.2,30.33,NE,38,2.0,8.0,66,0.00,,BKN110,0.00,VWS V14.01,2013-02-08 05:53:00,
2013-02-08 00:58:00,29.1,19.2,30.33,NE,42,4.0,8.0,66,0.00,,BKN110,0.00,VWS V14.01,2013-02-08 05:58:00,
2013-02-08 01:03:00,29.0,19.4,30.33,NE,46,3.0,5.0,67,0.00,,CLR,0.00,VWS V14.01,2013-02-08 06:03:00,
2013-02-08 01:08:00,29.0,19.4,30.33,North,5,2.0,7.0,67,0.00,,CLR,0.00,VWS V14.01,2013-02-08 06:08:00,
2013-02-08 01:13:00,29.0,19.8,30.33,North,355,4.0,7.0,68,0.00,,CLR,0.00,VWS V14.01,2013-02-08 06:13:00,
2013-02-08 01:18:00,29.0,20.1,30.33,NE,46,4.0,9.0,69,0.00,,CLR,0.00,VWS V14.01,2013-02-08 06:18:00,
2013-02-08 01:23:00,29.0,20.5,30.33,ENE,57,3.0,9.0,70,0.00,,CLR,0.00,VWS V14.01,2013-02-08 06:23:00,
2013-02-08 01:28:00,29.0,20.5,30.33,NNE,27,5.0,9.0,70,0.00,,CLR,0.00,VWS V14.01,2013-02-08 06:28:00,
2013-02-08 01:33:00,29.1,20.9,30.33,NNE,33,2.0,4.0,71,0.00,,CLR,0.00,VWS V14.01,2013-02-08 06:33:00,
2013-02-08 01:38:00,29.1,21.2,30.33,ENE,63,2.0,9.0,72,0.00,,CLR,0.00,VWS V14.01,2013-02-08 06:38:00,
2013-02-08 01:43:00,29.1,21.2,30.32,ENE,61,3.0,9.0,72,0.00,,CLR,0.00,VWS V14.01,2013-02-08 06:43:00,
2013-02-08 01:48:00,29.0,21.1,30.32,NE,38,5.0,9.0,72,0.00,,CLR,0.00,VWS V14.01,2013-02-08 06:48:00,
2013-02-08 01:53:00,29.0,21.4,30.32,NE,41,3.0,9.0,73,0.00,,CLR,0.00,VWS V14.01,2013-02-08 06:53:00,
2013-02-08 01:58:00,29.0,21.4,30.32,ENE,66,1.0,9.0,73,0.00,,CLR,0.00,VWS V14.01,2013-02-08 06:58:00,
2013-02-08 02:03:00,28.9,21.7,30.32,NNE,28,2.0,9.0,74,0.00,,OVC120,0.00,VWS V14.01,2013-02-08 07:03:00,
2013-02-08 02:08:00,28.9,21.7,30.32,NE,47,4.0,9.0,74,0.00,,OVC120,0.00,VWS V14.01,2013-02-08 07:08:00,
2013-02-08 02:13:00,28.9,21.7,30.32,NE,47,2.0,9.0,74,0.00,,OVC120,0.00,VWS V14.01,2013-02-08 07:13:00,
2013-02-08 02:18:00,28.9,21.7,30.32,ENE,63,3.0,9.0,74,0.00,,OVC120,0.00,VWS V14.01,2013-02-08 07:18:00,
2013-02-08 02:23:00,28.8,21.9,30.32,ENE,58,7.0,9.0,75,0.00,,OVC120,0.00,VWS V14.01,2013-02-08 07:23:00,
2013-02-08 02:28:00,28.8,21.9,30.32,NE,43,5.0,9.0,75,0.00,,OVC120,0.00,VWS V14.01,2013-02-08 07:28:00,
2013-02-08 02:33:00,28.8,21.9,30.31,North,5,5.0,5.0,75,0.00,,OVC120,0.00,VWS V14.01,2013-02-08 07:33:00,
2013-02-08 02:38:00,28.9,22.3,30.31,ENE,77,1.0,5.0,76,0.00,,OVC120,0.00,VWS V14.01,2013-02-08 07:38:00,
2013-02-08 02:43:00,28.9,22.3,30.31,ENE,59,1.0,5.0,76,0.00,,OVC120,0.00,VWS V14.01,2013-02-08 07:43:00,
2013-02-08 02:48:00,28.9,22.3,30.31,NE,55,3.0,5.0,76,0.00,,OVC120,0.00,VWS V14.01,2013-02-08 07:48:00,
2013-02-08 02:53:00,28.9,22.6,30.30,NE,51,2.0,5.0,77,0.00,,OVC120,0.00,VWS V14.01,2013-02-08 07:53:00,
2013-02-08 02:58:00,29.0,22.7,30.30,ENE,68,2.0,7.0,77,0.00,,OVC120,0.00,VWS V14.01,2013-02-08 07:58:00,
2013-02-08 03:03:00,29.0,23.0,30.30,ENE,62,2.0,6.0,78,0.00,,BKN042,0.00,VWS V14.01,2013-02-08 08:03:00,
2013-02-08 03:08:00,29.1,23.1,30.29,ENE,61,6.0,6.0,78,0.00,,BKN042,0.00,VWS V14.01,2013-02-08 08:08:00,
2013-02-08 03:14:00,29.2,23.2,30.29,ENE,58,5.0,6.0,78,0.00,,BKN042,0.00,VWS V14.01,2013-02-08 08:14:00,
2013-02-08 03:19:00,29.3,23.6,30.29,NE,49,0.0,7.0,79,0.00,,BKN042,0.00,VWS V14.01,2013-02-08 08:19:00,
2013-02-08 03:24:00,29.4,23.7,30.29,ENE,61,2.0,7.0,79,0.00,,BKN042,0.00,VWS V14.01,2013-02-08 08:24:00,
2013-02-08 03:29:00,29.5,23.8,30.28,SE,125,5.0,9.0,79,0.00,,BKN042,0.00,VWS V14.01,2013-02-08 08:29:00,
2013-02-08 03:34:00,29.6,24.2,30.28,NE,50,4.0,5.0,80,0.00,,BKN042,0.00,VWS V14.01,2013-02-08 08:34:00,
2013-02-08 03:39:00,29.7,24.3,30.27,NE,56,3.0,9.0,80,0.00,,BKN042,0.00,VWS V14.01,2013-02-08 08:39:00,
2013-02-08 03:44:00,29.8,24.4,30.27,NNE,28,3.0,9.0,80,0.00,,BKN042,0.00,VWS V14.01,2013-02-08 08:44:00,
2013-02-08 03:49:00,29.8,24.7,30.27,NE,55,4.0,9.0,81,0.00,,BKN042,0.00,VWS V14.01,2013-02-08 08:49:00,
2013-02-08 03:54:00,29.9,24.8,30.26,NE,42,5.0,9.0,81,0.00,,BKN042,0.00,VWS V14.01,2013-02-08 08:54:00,
2013-02-08 03:59:00,30.1,25.0,30.25,NE,44,6.0,9.0,81,0.00,,BKN042,0.00,VWS V14.01,2013-02-08 08:59:00,
2013-02-08 04:04:00,30.1,25.3,30.25,NE,52,1.0,5.0,82,0.00,,OVC047,0.00,VWS V14.01,2013-02-08 09:04:00,
2013-02-08 04:09:00,30.2,25.4,30.25,NNE,19,3.0,7.0,82,0.00,,OVC047,0.00,VWS V14.01,2013-02-08 09:09:00,
2013-02-08 04:14:00,30.3,25.5,30.25,NE,56,4.0,7.0,82,0.00,,OVC047,0.00,VWS V14.01,2013-02-08 09:14:00,
2013-02-08 04:19:00,30.4,25.9,30.24,NNE,28,5.0,7.0,83,0.00,,OVC047,0.00,VWS V14.01,2013-02-08 09:19:00,
2013-02-08 04:24:00,30.6,26.1,30.25,NE,41,4.0,7.0,83,0.00,,OVC047,0.00,VWS V14.01,2013-02-08 09:24:00,
2013-02-08 04:29:00,30.6,26.1,30.24,ENE,73,4.0,7.0,83,0.00,,OVC047,0.00,VWS V14.01,2013-02-08 09:29:00,
2013-02-08 04:34:00,30.7,26.2,30.24,NE,52,2.0,7.0,83,0.00,,OVC047,0.00,VWS V14.01,2013-02-08 09:34:00,
2013-02-08 04:39:00,30.8,26.3,30.24,NE,55,4.0,7.0,83,0.00,,OVC047,0.00,VWS V14.01,2013-02-08 09:39:00,
2013-02-08 04:44:00,31.0,26.7,30.24,NE,49,2.0,9.0,84,0.00,,OVC047,0.00,VWS V14.01,2013-02-08 09:44:00,
2013-02-08 04:49:00,31.1,26.8,30.24,ENE,78,2.0,9.0,84,0.00,,OVC047,0.00,VWS V14.01,2013-02-08 09:49:00,
2013-02-08 04:54:00,31.2,26.9,30.23,NNE,28,5.0,10.0,84,0.00,,OVC047,0.00,VWS V14.01,2013-02-08 09:54:00,
2013-02-08 04:59:00,31.4,27.1,30.23,ENE,60,3.0,10.0,84,0.00,,OVC047,0.00,VWS V14.01,2013-02-08 09:59:00,
2013-02-08 05:04:00,31.5,27.2,30.23,NE,46,5.0,7.0,84,0.00,,OVC022,0.00,VWS V14.01,2013-02-08 10:04:00,
2013-02-08 05:09:00,31.6,27.3,30.23,ENE,65,3.0,8.0,84,0.00,,OVC022,0.00,VWS V14.01,2013-02-08 10:09:00,
2013-02-08 05:14:00,31.7,27.7,30.22,NE,45,3.0,8.0,85,0.00,,OVC022,0.00,VWS V14.01,2013-02-08 10:14:00,
2013-02-08 05:19:00,31.8,27.5,30.22,NNE,24,4.0,8.0,84,0.00,,OVC022,0.00,VWS V14.01,2013-02-08 10:19:00,
2013-02-08 05:24:00,31.9,27.6,30.22,NE,49,4.0,8.0,84,0.00,,OVC022,0.00,VWS V14.01,2013-02-08 10:24:00,
2013-02-08 05:29:00,32.0,28.0,30.21,ENE,64,3.0,8.0,85,0.00,,OVC022,0.00,VWS V14.01,2013-02-08 10:29:00,
2013-02-08 05:34:00,32.0,27.7,30.21,ENE,62,3.0,7.0,84,0.00,,OVC022,0.00,VWS V14.01,2013-02-08 10:34:00,
2013-02-08 05:39:00,32.1,28.1,30.21,NE,56,5.0,7.0,85,0.00,,OVC022,0.00,VWS V14.01,2013-02-08 10:39:00,
2013-02-08 05:44:00,32.3,28.3,30.20,NE,54,1.0,7.0,85,0.00,,OVC022,0.00,VWS V14.01,2013-02-08 10:44:00,
2013-02-08 05:49:00,32.4,28.4,30.20,ENE,62,2.0,7.0,85,0.00,,OVC022,0.00,VWS V14.01,2013-02-08 10:49:00,
2013-02-08 05:54:00,32.6,28.6,30.20,ESE,107,3.0,8.0,85,0.00,,OVC022,0.00,VWS V14.01,2013-02-08 10:54:00,
2013-02-08 05:59:00,32.8,28.8,30.19,NE,42,5.0,8.0,85,0.00,,OVC022,0.00,VWS V14.01,2013-02-08 10:59:00,
2013-02-08 06:04:00,32.9,28.9,30.19,NE,54,0.0,5.0,85,0.00,,OVC022,0.00,VWS V14.01,2013-02-08 11:04:00,
2013-02-08 06:09:00,32.9,28.9,30.19,NE,55,2.0,7.0,85,0.00,,OVC022,0.00,VWS V14.01,2013-02-08 11:09:00,
2013-02-08 06:14:00,33.1,29.1,30.19,ENE,62,3.0,7.0,85,0.00,,OVC022,0.00,VWS V14.01,2013-02-08 11:14:00,
2013-02-08 06:19:00,33.2,29.2,30.19,ENE,69,2.0,11.0,85,0.00,,OVC022,0.00,VWS V14.01,2013-02-08 11:19:00,
2013-02-08 06:24:00,33.3,29.3,30.20,ENE,65,2.0,11.0,85,0.00,,OVC022,0.00,VWS V14.01,2013-02-08 11:24:00,
2013-02-08 06:29:00,33.5,29.5,30.19,ESE,105,2.0,13.0,85,0.00,,OVC022,0.00,VWS V14.01,2013-02-08 11:29:00,
2013-02-08 06:34:00,33.8,30.1,30.19,NE,49,0.0,6.0,86,0.00,,OVC022,0.00,VWS V14.01,2013-02-08 11:34:00,
2013-02-08 06:39:00,34.4,30.6,30.19,East,96,3.0,10.0,86,0.00,,OVC022,0.00,VWS V14.01,2013-02-08 11:39:00,
2013-02-08 06:44:00,34.8,31.3,30.18,ESE,103,5.0,10.0,87,0.00,,OVC022,0.00,VWS V14.01,2013-02-08 11:44:00,
2013-02-08 06:49:00,35.2,31.4,30.18,ENE,70,3.0,10.0,86,0.00,,OVC022,0.00,VWS V14.01,2013-02-08 11:49:00,
2013-02-08 06:54:00,35.4,31.6,30.18,ESE,104,4.0,13.0,86,0.00,,OVC022,0.00,VWS V14.01,2013-02-08 11:54:00,
2013-02-08 06:59:00,35.5,31.5,30.18,ENE,59,7.0,13.0,85,0.00,,OVC022,0.00,VWS V14.01,2013-02-08 11:59:00,
2013-02-08 07:04:00,35.5,31.5,30.17,NE,42,2.0,12.0,85,0.00,,OVC018,0.00,VWS V14.01,2013-02-08 12:04:00,
2013-02-08 07:09:00,35.5,31.1,30.17,East,84,6.0,12.0,84,0.00,,OVC018,0.00,VWS V14.01,2013-02-08 12:09:00,
2013-02-08 07:14:00,35.4,31.1,30.16,NE,54,6.0,13.0,84,0.00,,OVC018,0.00,VWS V14.01,2013-02-08 12:14:00,
2013-02-08 07:19:00,35.4,31.1,30.16,ENE,78,2.0,13.0,84,0.00,,OVC018,0.00,VWS V14.01,2013-02-08 12:19:00,
2013-02-08 07:24:00,35.3,31.0,30.17,ENE,66,3.0,13.0,84,0.00,,OVC018,0.00,VWS V14.01,2013-02-08 12:24:00,
2013-02-08 07:29:00,35.2,30.9,30.17,NNE,30,9.0,13.0,84,0.00,,OVC018,0.00,VWS V14.01,2013-02-08 12:29:00,
2013-02-08 07:34:00,35.1,30.8,30.17,NE,47,4.0,8.0,84,0.00,,OVC018,0.00,VWS V14.01,2013-02-08 12:34:00,
2013-02-08 07:39:00,35.1,31.0,30.17,East,81,3.0,9.0,85,0.00,,OVC018,0.00,VWS V14.01,2013-02-08 12:39:00,
2013-02-08 07:44:00,35.0,31.0,30.17,SW,235,2.0,11.0,85,0.00,,OVC018,0.00,VWS V14.01,2013-02-08 12:44:00,
2013-02-08 07:49:00,34.9,31.1,30.17,NE,51,3.0,11.0,86,0.00,,OVC018,0.00,VWS V14.01,2013-02-08 12:49:00,
2013-02-08 07:54:00,34.7,31.2,30.16,East,82,6.0,12.0,87,0.00,,OVC018,0.00,VWS V14.01,2013-02-08 12:54:00,
2013-02-08 07:59:00,34.6,31.1,30.16,NE,36,2.0,12.0,87,0.00,,OVC018,0.00,VWS V14.01,2013-02-08 12:59:00,
2013-02-08 08:04:00,34.5,31.3,30.16,NE,53,4.0,6.0,88,0.00,,,0.00,VWS V14.01,2013-02-08 13:04:00,
2013-02-08 08:09:00,34.4,31.2,30.15,NE,46,5.0,11.0,88,0.00,,,0.00,VWS V14.01,2013-02-08 13:09:00,
2013-02-08 08:14:00,34.4,31.5,30.15,East,83,2.0,11.0,89,0.00,,,0.00,VWS V14.01,2013-02-08 13:14:00,
2013-02-08 08:19:00,34.3,31.4,30.15,NE,44,4.0,11.0,89,0.00,,,0.00,VWS V14.01,2013-02-08 13:19:00,
2013-02-08 08:24:00,34.2,31.3,30.15,East,83,6.0,11.0,89,0.00,,,0.00,VWS V14.01,2013-02-08 13:24:00,
2013-02-08 08:29:00,34.1,31.2,30.15,ESE,103,2.0,11.0,89,0.00,,,0.00,VWS V14.01,2013-02-08 13:29:00,
2013-02-08 08:34:00,34.1,31.5,30.15,ENE,62,4.0,4.0,90,0.00,,,0.00,VWS V14.01,2013-02-08 13:34:00,
2013-02-08 08:39:00,34.1,31.5,30.14,ENE,62,3.0,7.0,90,0.00,,,0.00,VWS V14.01,2013-02-08 13:39:00,
2013-02-08 08:44:00,34.0,31.4,30.14,ENE,69,4.0,11.0,90,0.00,,,0.00,VWS V14.01,2013-02-08 13:44:00,
2013-02-08 08:49:00,33.9,31.6,30.14,NE,40,5.0,11.0,91,0.00,,,0.00,VWS V14.01,2013-02-08 13:49:00,
2013-02-08 08:54:00,33.9,31.6,30.13,NE,43,6.0,11.0,91,0.00,,,0.00,VWS V14.01,2013-02-08 13:54:00,
2013-02-08 08:59:00,33.9,31.6,30.13,ENE,69,3.0,11.0,91,0.00,,,0.00,VWS V14.01,2013-02-08 13:59:00,
2013-02-08 09:04:00,33.9,31.6,30.13,East,98,2.0,8.0,91,0.00,,,0.00,VWS V14.01,2013-02-08 14:04:00,
2013-02-08 09:09:00,33.9,31.6,30.13,ENE,58,4.0,12.0,91,0.00,,,0.00,VWS V14.01,2013-02-08 14:09:00,
2013-02-08 09:14:00,33.9,31.8,30.13,East,90,2.0,12.0,92,0.00,,,0.00,VWS V14.01,2013-02-08 14:14:00,
2013-02-08 09:19:00,33.9,31.8,30.13,ENE,65,2.0,12.0,92,0.00,,,0.00,VWS V14.01,2013-02-08 14:19:00,
2013-02-08 09:24:00,33.9,31.8,30.12,ENE,78,9.0,12.0,92,0.00,,,0.00,VWS V14.01,2013-02-08 14:24:00,
2013-02-08 09:29:00,33.9,31.8,30.12,NE,43,3.0,12.0,92,0.00,,,0.00,VWS V14.01,2013-02-08 14:29:00,
2013-02-08 09:34:00,33.9,31.8,30.11,NE,40,2.0,8.0,92,0.00,,,0.00,VWS V14.01,2013-02-08 14:34:00,
2013-02-08 09:39:00,33.9,31.8,30.11,ENE,75,4.0,8.0,92,0.00,,,0.00,VWS V14.01,2013-02-08 14:39:00,
2013-02-08 09:44:00,33.9,31.8,30.11,ENE,68,5.0,12.0,92,0.00,,,0.00,VWS V14.01,2013-02-08 14:44:00,
2013-02-08 09:49:00,33.9,31.8,30.10,NE,54,5.0,13.0,92,0.00,,,0.00,VWS V14.01,2013-02-08 14:49:00,
2013-02-08 09:54:00,33.9,31.8,30.10,East,79,6.0,13.0,92,0.00,,,0.00,VWS V14.01,2013-02-08 14:54:00,
2013-02-08 09:59:00,33.9,32.1,30.10,NE,56,1.0,13.0,93,0.00,,,0.00,VWS V14.01,2013-02-08 14:59:00,
2013-02-08 10:04:00,33.9,32.1,30.10,NE,55,3.0,12.0,93,0.00,,,0.00,VWS V14.01,2013-02-08 15:04:00,
2013-02-08 10:09:00,33.9,32.1,30.09,East,84,6.0,12.0,93,0.00,,,0.00,VWS V14.01,2013-02-08 15:09:00,
2013-02-08 10:14:00,33.8,32.0,30.08,NE,49,7.0,12.0,93,0.00,,,0.00,VWS V14.01,2013-02-08 15:14:00,
2013-02-08 10:19:00,33.8,32.0,30.08,NE,48,7.0,12.0,93,0.00,,,0.00,VWS V14.01,2013-02-08 15:19:00,
2013-02-08 10:24:00,33.8,33.5,30.08,NNE,24,5.0,12.0,99,0.00,,,0.00,VWS V14.01,2013-02-08 15:24:00,
2013-02-08 10:29:00,33.8,33.5,30.07,NE,44,5.0,12.0,99,0.00,,,0.00,VWS V14.01,2013-02-08 15:29:00,
2013-02-08 10:34:00,33.8,32.0,30.07,ENE,73,3.0,7.0,93,0.00,,,0.00,VWS V14.01,2013-02-08 15:34:00,
2013-02-08 10:39:00,33.7,31.9,30.06,ENE,59,3.0,10.0,93,0.00,,,0.00,VWS V14.01,2013-02-08 15:39:00,
2013-02-08 10:44:00,33.7,31.9,30.06,ENE,76,3.0,10.0,93,0.00,,,0.00,VWS V14.01,2013-02-08 15:44:00,
2013-02-08 10:50:00,33.7,31.9,30.06,NE,49,2.0,10.0,93,0.00,,,0.00,VWS V14.01,2013-02-08 15:50:00,
2013-02-08 10:55:00,33.7,31.9,30.05,NE,37,5.0,10.0,93,0.00,,,0.00,VWS V14.01,2013-02-08 15:55:00,
2013-02-08 11:00:00,33.7,31.9,30.04,ENE,61,1.0,10.0,93,0.00,,,0.00,VWS V14.01,2013-02-08 16:00:00,
2013-02-08 11:05:00,33.7,31.9,30.04,NE,40,2.0,7.0,93,0.00,,,0.00,VWS V14.01,2013-02-08 16:05:00,
2013-02-08 11:10:00,33.7,31.9,30.03,ENE,57,7.0,9.0,93,0.00,,,0.00,VWS V14.01,2013-02-08 16:10:00,
2013-02-08 11:15:00,33.6,31.8,30.03,East,80,1.0,11.0,93,0.00,,,0.00,VWS V14.01,2013-02-08 16:15:00,
2013-02-08 11:20:00,33.6,31.8,30.02,NE,38,2.0,11.0,93,0.00,,,0.00,VWS V14.01,2013-02-08 16:20:00,
2013-02-08 11:25:00,33.7,31.9,30.01,NE,49,6.0,11.0,93,0.00,,,0.00,VWS V14.01,2013-02-08 16:25:00,
2013-02-08 11:30:00,33.7,31.9,30.01,NE,54,5.0,11.0,93,0.00,,,0.00,VWS V14.01,2013-02-08 16:30:00,
2013-02-08 11:35:00,33.7,31.9,30.00,NNE,30,2.0,8.0,93,0.00,,,0.00,VWS V14.01,2013-02-08 16:35:00,
2013-02-08 11:40:00,33.7,31.9,29.99,NE,51,8.0,11.0,93,0.00,,,0.00,VWS V14.01,2013-02-08 16:40:00,
2013-02-08 11:45:00,33.8,32.0,29.99,NNE,31,5.0,11.0,93,0.00,,,0.00,VWS V14.01,2013-02-08 16:45:00,
2013-02-08 11:50:00,33.8,32.0,29.98,ENE,63,3.0,11.0,93,0.00,,,0.00,VWS V14.01,2013-02-08 16:50:00,
2013-02-08 11:55:00,33.8,32.0,29.98,NNE,24,2.0,11.0,93,0.00,,,0.00,VWS V14.01,2013-02-08 16:55:00,
2013-02-08 12:00:00,33.8,32.0,29.98,ENE,57,7.0,11.0,93,0.00,,,0.00,VWS V14.01,2013-02-08 17:00:00,
2013-02-08 12:05:00,33.8,32.0,29.97,NE,40,2.0,9.0,93,0.00,,,0.00,VWS V14.01,2013-02-08 17:05:00,
2013-02-08 12:10:00,33.8,32.0,29.97,NE,54,5.0,12.0,93,0.00,,,0.00,VWS V14.01,2013-02-08 17:10:00,
2013-02-08 12:15:00,33.8,32.0,29.97,NE,55,4.0,12.0,93,0.00,,,0.00,VWS V14.01,2013-02-08 17:15:00,
2013-02-08 12:20:00,33.7,31.9,29.96,NE,48,6.0,12.0,93,0.00,,,0.00,VWS V14.01,2013-02-08 17:20:00,
2013-02-08 12:25:00,33.7,32.2,29.96,NE,42,3.0,12.0,94,0.00,,,0.00,VWS V14.01,2013-02-08 17:25:00,
2013-02-08 12:30:00,33.8,32.3,29.95,ENE,62,1.0,12.0,94,0.00,,,0.00,VWS V14.01,2013-02-08 17:30:00,
2013-02-08 12:35:00,33.8,32.3,29.95,NE,53,4.0,8.0,94,0.00,,,0.00,VWS V14.01,2013-02-08 17:35:00,
2013-02-08 12:40:00,33.8,32.3,29.94,NNE,28,2.0,12.0,94,0.00,,,0.00,VWS V14.01,2013-02-08 17:40:00,
2013-02-08 12:45:00,33.8,32.3,29.93,ENE,57,15.0,15.0,94,0.00,,,0.00,VWS V14.01,2013-02-08 17:45:00,
2013-02-08 12:50:00,33.9,32.4,29.93,NNE,17,7.0,15.0,94,0.00,,,0.00,VWS V14.01,2013-02-08 17:50:00,
2013-02-08 12:55:00,33.9,32.4,29.92,NE,41,7.0,15.0,94,0.00,,,0.00,VWS V14.01,2013-02-08 17:55:00,
2013-02-08 13:00:00,33.9,32.4,29.92,NE,46,4.0,15.0,94,0.00,,,0.00,VWS V14.01,2013-02-08 18:00:00,
2013-02-08 13:05:00,34.0,32.5,29.91,NE,37,3.0,9.0,94,0.00,,,0.00,VWS V14.01,2013-02-08 18:05:00,
2013-02-08 13:10:00,34.0,32.5,29.90,NNE,26,5.0,9.0,94,0.00,,,0.00,VWS V14.01,2013-02-08 18:10:00,
2013-02-08 13:15:00,34.0,32.5,29.90,NNE,32,6.0,11.0,94,0.00,,,0.00,VWS V14.01,2013-02-08 18:15:00,
2013-02-08 13:20:00,34.1,32.6,29.89,NE,35,4.0,11.0,94,0.00,,,0.00,VWS V14.01,2013-02-08 18:20:00,
2013-02-08 13:25:00,34.1,32.6,29.88,NNE,14,2.0,11.0,94,0.00,,,0.00,VWS V14.01,2013-02-08 18:25:00,
2013-02-08 13:30:00,34.1,32.6,29.88,North,355,3.0,11.0,94,0.00,,,0.00,VWS V14.01,2013-02-08 18:30:00,
2013-02-08 13:35:00,34.2,32.7,29.87,NNE,25,2.0,10.0,94,0.00,,,0.00,VWS V14.01,2013-02-08 18:35:00,
2013-02-08 13:40:00,34.2,32.7,29.87,NNE,30,2.0,10.0,94,0.00,,,0.00,VWS V14.01,2013-02-08 18:40:00,
2013-02-08 13:45:00,34.2,32.7,29.86,NE,40,3.0,10.0,94,0.00,,,0.00,VWS V14.01,2013-02-08 18:45:00,
2013-02-08 13:50:00,34.2,32.7,29.85,NE,35,1.0,12.0,94,0.00,,,0.00,VWS V14.01,2013-02-08 18:50:00,
2013-02-08 13:55:00,34.3,32.8,29.85,ENE,64,4.0,12.0,94,0.00,,,0.00,VWS V14.01,2013-02-08 18:55:00,
2013-02-08 14:00:00,34.3,32.8,29.84,NE,48,8.0,12.0,94,0.00,,,0.00,VWS V14.01,2013-02-08 19:00:00,
2013-02-08 14:05:00,34.3,32.8,29.84,NE,46,6.0,9.0,94,0.00,,,0.00,VWS V14.01,2013-02-08 19:05:00,
2013-02-08 14:10:00,34.3,32.8,29.84,ENE,63,2.0,9.0,94,0.00,,,0.00,VWS V14.01,2013-02-08 19:10:00,
2013-02-08 14:15:00,34.3,32.8,29.83,NNW,346,4.0,10.0,94,0.00,,,0.00,VWS V14.01,2013-02-08 19:15:00,
2013-02-08 14:20:00,34.3,33.0,29.83,NNE,18,5.0,11.0,95,0.00,,,0.00,VWS V14.01,2013-02-08 19:20:00,
2013-02-08 14:25:00,34.3,33.0,29.82,NE,46,4.0,11.0,95,0.00,,,0.00,VWS V14.01,2013-02-08 19:25:00,
2013-02-08 14:30:00,34.3,33.0,29.81,NE,42,4.0,11.0,95,0.00,,,0.00,VWS V14.01,2013-02-08 19:30:00,
2013-02-08 14:35:00,34.3,33.0,29.81,NE,36,3.0,7.0,95,0.00,,,0.00,VWS V14.01,2013-02-08 19:35:00,
2013-02-08 14:40:00,34.3,33.0,29.80,NNE,14,5.0,7.0,95,0.00,,,0.00,VWS V14.01,2013-02-08 19:40:00,
2013-02-08 14:45:00,34.3,33.0,29.80,NE,39,5.0,11.0,95,0.00,,,0.00,VWS V14.01,2013-02-08 19:45:00,
2013-02-08 14:50:00,34.3,33.0,29.79,NNE,18,9.0,12.0,95,0.00,,,0.00,VWS V14.01,2013-02-08 19:50:00,
2013-02-08 14:55:00,34.3,33.0,29.78,NE,52,5.0,12.0,95,0.00,,,0.00,VWS V14.01,2013-02-08 19:55:00,
2013-02-08 15:00:00,34.3,33.0,29.77,NE,34,3.0,13.0,95,0.00,,,0.00,VWS V14.01,2013-02-08 20:00:00,
2013-02-08 15:05:00,34.3,33.0,29.76,NNE,24,7.0,12.0,95,0.00,,,0.00,VWS V14.01,2013-02-08 20:05:00,
2013-02-08 15:10:00,34.3,33.0,29.75,East,86,5.0,12.0,95,0.00,,,0.00,VWS V14.01,2013-02-08 20:10:00,
2013-02-08 15:15:00,34.3,33.0,29.75,NNE,21,5.0,12.0,95,0.00,,,0.00,VWS V14.01,2013-02-08 20:15:00,
2013-02-08 15:20:00,34.3,33.0,29.75,NE,51,4.0,12.0,95,0.00,,,0.00,VWS V14.01,2013-02-08 20:20:00,
2013-02-08 15:25:00,34.3,33.0,29.74,NE,36,6.0,14.0,95,0.00,,,0.00,VWS V14.01,2013-02-08 20:25:00,
2013-02-08 15:30:00,34.3,33.0,29.74,NNE,30,9.0,14.0,95,0.00,,,0.00,VWS V14.01,2013-02-08 20:30:00,
2013-02-08 15:35:00,34.2,32.9,29.73,NNE,24,5.0,6.0,95,0.00,,,0.00,VWS V14.01,2013-02-08 20:35:00,
2013-02-08 15:40:00,34.2,32.9,29.72,NE,38,5.0,7.0,95,0.00,,,0.00,VWS V14.01,2013-02-08 20:40:00,
2013-02-08 15:45:00,34.2,32.9,29.71,East,93,4.0,11.0,95,0.00,,,0.00,VWS V14.01,2013-02-08 20:45:00,
2013-02-08 15:50:00,34.2,32.9,29.71,North,351,4.0,11.0,95,0.00,,,0.00,VWS V14.01,2013-02-08 20:50:00,
2013-02-08 15:55:00,34.2,32.9,29.71,NE,49,2.0,11.0,95,0.00,,,0.00,VWS V14.01,2013-02-08 20:55:00,
2013-02-08 16:00:00,34.2,32.9,29.70,NNE,25,8.0,11.0,95,0.00,,,0.00,VWS V14.01,2013-02-08 21:00:00,
2013-02-08 16:05:00,34.1,32.8,29.70,NE,48,4.0,14.0,95,0.00,,,0.00,VWS V14.01,2013-02-08 21:05:00,
2013-02-08 16:10:00,34.1,32.8,29.69,NNE,24,7.0,14.0,95,0.00,,,0.00,VWS V14.01,2013-02-08 21:10:00,
2013-02-08 16:15:00,34.1,32.8,29.69,NE,39,2.0,14.0,95,0.00,,,0.00,VWS V14.01,2013-02-08 21:15:00,
2013-02-08 16:20:00,34.1,32.8,29.68,ENE,68,5.0,14.0,95,0.00,,,0.00,VWS V14.01,2013-02-08 21:20:00,
2013-02-08 16:25:00,34.1,32.8,29.67,North,11,5.0,14.0,95,0.00,,,0.00,VWS V14.01,2013-02-08 21:25:00,
2013-02-08 16:31:00,34.0,32.7,29.67,NE,49,4.0,14.0,95,0.00,,,0.00,VWS V14.01,2013-02-08 21:31:00,
2013-02-08 16:36:00,34.0,32.7,29.67,NNE,26,6.0,7.0,95,0.00,,,0.00,VWS V14.01,2013-02-08 21:36:00,
2013-02-08 16:41:00,34.0,32.7,29.68,NE,41,3.0,7.0,95,0.00,,,0.00,VWS V14.01,2013-02-08 21:41:00,
2013-02-08 16:46:00,34.0,32.7,29.68,ENE,57,2.0,8.0,95,0.00,,,0.00,VWS V14.01,2013-02-08 21:46:00,
2013-02-08 16:51:00,34.0,32.7,29.67,NNE,30,4.0,8.0,95,0.00,,,0.00,VWS V14.01,2013-02-08 21:51:00,
2013-02-08 17:01:00,33.9,32.6,29.66,NNE,20,0.0,8.0,95,0.00,,,0.00,VWS V14.01,2013-02-08 22:01:00,
2013-02-08 17:06:00,33.9,32.6,29.66,ENE,57,0.0,0.0,95,0.00,,,0.00,VWS V14.01,2013-02-08 22:06:00,
2013-02-08 17:11:00,34.0,32.7,29.65,NNE,31,0.0,0.0,95,0.00,,,0.00,VWS V14.01,2013-02-08 22:11:00,
2013-02-08 17:16:00,34.0,32.7,29.65,North,360,0.0,0.0,95,0.00,,,0.00,VWS V14.01,2013-02-08 22:16:00,
2013-02-08 17:21:00,33.9,32.6,29.64,NE,47,0.0,0.0,95,0.00,,,0.00,VWS V14.01,2013-02-08 22:21:00,
2013-02-08 17:26:00,33.9,32.6,29.65,NNE,26,0.0,0.0,95,0.00,,,0.00,VWS V14.01,2013-02-08 22:26:00,
2013-02-08 17:31:00,33.9,32.6,29.65,NE,56,0.0,0.0,95,0.00,,,0.00,VWS V14.01,2013-02-08 22:31:00,
2013-02-08 17:36:00,33.9,32.6,29.64,NE,42,0.0,0.0,95,0.00,,,0.00,VWS V14.01,2013-02-08 22:36:00,
2013-02-08 17:41:00,33.9,32.9,29.64,NE,35,0.0,0.0,96,0.00,,,0.00,VWS V14.01,2013-02-08 22:41:00,
2013-02-08 17:46:00,33.9,32.9,29.64,NNE,17,0.0,0.0,96,0.00,,,0.00,VWS V14.01,2013-02-08 22:46:00,
2013-02-08 17:51:00,33.9,32.9,29.64,NNE,13,0.0,0.0,96,0.00,,,0.00,VWS V14.01,2013-02-08 22:51:00,
2013-02-08 17:56:00,33.9,32.9,29.62,NNE,13,0.0,0.0,96,0.00,,,0.00,VWS V14.01,2013-02-08 22:56:00,
2013-02-08 18:01:00,33.8,32.8,29.62,NNE,16,0.0,0.0,96,0.00,,,0.00,VWS V14.01,2013-02-08 23:01:00,
2013-02-08 18:06:00,33.9,32.9,29.61,NNE,16,0.0,0.0,96,0.00,,,0.00,VWS V14.01,2013-02-08 23:06:00,
2013-02-08 18:11:00,33.9,32.9,29.60,NNE,17,0.0,0.0,96,0.00,,,0.00,VWS V14.01,2013-02-08 23:11:00,
2013-02-08 18:16:00,33.9,32.9,29.60,NNE,16,0.0,0.0,96,0.00,,,0.00,VWS V14.01,2013-02-08 23:16:00,
2013-02-08 18:21:00,33.9,32.9,29.58,NNE,17,0.0,0.0,96,0.00,,,0.00,VWS V14.01,2013-02-08 23:21:00,
2013-02-08 18:26:00,33.8,32.8,29.59,NNE,17,0.0,0.0,96,0.00,,,0.00,VWS V14.01,2013-02-08 23:26:00,
2013-02-08 18:31:00,33.8,32.8,29.58,NNE,17,0.0,0.0,96,0.00,,,0.00,VWS V14.01,2013-02-08 23:31:00,
2013-02-08 18:36:00,33.8,32.8,29.57,NNE,17,0.0,0.0,96,0.00,,,0.00,VWS V14.01,2013-02-08 23:36:00,
2013-02-08 18:41:00,33.8,32.8,29.57,NNE,17,0.0,0.0,96,0.00,,,0.00,VWS V14.01,2013-02-08 23:41:00,
2013-02-08 18:46:00,33.8,32.8,29.55,NNE,17,0.0,0.0,96,0.00,,,0.00,VWS V14.01,2013-02-08 23:46:00,
2013-02-08 18:51:00,33.8,32.8,29.55,NNE,17,0.0,0.0,96,0.00,,,0.00,VWS V14.01,2013-02-08 23:51:00,
2013-02-08 18:56:00,33.8,32.8,29.55,NNE,17,0.0,0.0,96,0.00,,,0.00,VWS V14.01,2013-02-08 23:56:00,
2013-02-08 19:01:00,33.8,33.8,29.54,NNE,17,0.0,0.0,100,0.00,,,0.00,VWS V14.01,2013-02-09 00:01:00,
2013-02-08 19:06:00,33.8,32.8,29.54,NNE,17,0.0,0.0,96,0.00,,,0.00,VWS V14.01,2013-02-09 00:06:00,
2013-02-08 19:11:00,33.8,33.8,29.54,NNE,17,0.0,0.0,100,0.00,,,0.00,VWS V14.01,2013-02-09 00:11:00,
2013-02-08 19:16:00,33.8,33.8,29.52,NNE,17,0.0,0.0,100,0.00,,,0.00,VWS V14.01,2013-02-09 00:16:00,
2013-02-08 19:21:00,33.8,32.8,29.52,NNE,17,0.0,0.0,96,0.00,,,0.00,VWS V14.01,2013-02-09 00:21:00,
2013-02-08 19:37:00,33.8,32.8,29.50,NNE,17,0.0,0.0,96,0.00,,,0.00,VWS V14.01,2013-02-09 00:37:00,
2013-02-08 19:42:00,33.8,33.8,29.49,NNE,17,0.0,0.0,100,0.00,,,0.00,VWS V14.01,2013-02-09 00:42:00,
2013-02-08 19:47:00,33.8,33.8,29.49,NNE,17,0.0,0.0,100,0.00,,,0.00,VWS V14.01,2013-02-09 00:47:00,
2013-02-08 19:52:00,33.8,32.8,29.49,NNE,18,0.0,0.0,96,0.00,,,0.00,VWS V14.01,2013-02-09 00:52:00,
2013-02-08 19:57:00,33.8,32.8,29.49,NNE,18,0.0,0.0,96,0.00,,,0.00,VWS V14.01,2013-02-09 00:57:00,
2013-02-08 20:02:00,33.9,32.9,29.48,NNE,18,0.0,0.0,96,0.00,,,0.00,VWS V14.01,2013-02-09 01:02:00,
2013-02-08 20:07:00,33.9,32.9,29.47,NNE,18,0.0,0.0,96,0.00,,,0.00,VWS V14.01,2013-02-09 01:07:00,
2013-02-08 20:12:00,33.9,32.9,29.47,NNE,18,0.0,0.0,96,0.00,,,0.00,VWS V14.01,2013-02-09 01:12:00,
2013-02-08 20:17:00,33.8,32.8,29.47,NNE,19,0.0,0.0,96,0.00,,,0.00,VWS V14.01,2013-02-09 01:17:00,
2013-02-08 20:22:00,33.9,32.9,29.46,NNE,19,0.0,0.0,96,0.00,,,0.00,VWS V14.01,2013-02-09 01:22:00,
2013-02-08 20:27:00,33.8,32.8,29.45,NNE,19,0.0,0.0,96,0.00,,,0.00,VWS V14.01,2013-02-09 01:27:00,
2013-02-08 20:32:00,33.9,32.9,29.43,NNE,19,0.0,0.0,96,0.00,,,0.00,VWS V14.01,2013-02-09 01:32:00,
2013-02-08 20:37:00,33.9,32.9,29.43,NNE,19,0.0,0.0,96,0.00,,,0.00,VWS V14.01,2013-02-09 01:37:00,
2013-02-08 20:42:00,33.9,32.9,29.44,NNE,19,0.0,0.0,96,0.00,,,0.00,VWS V14.01,2013-02-09 01:42:00,
2013-02-08 20:47:00,33.9,32.9,29.45,NNE,19,0.0,0.0,96,0.00,,,0.00,VWS V14.01,2013-02-09 01:47:00,
2013-02-08 20:52:00,33.9,32.9,29.46,NNE,19,0.0,0.0,96,0.00,,,0.00,VWS V14.01,2013-02-09 01:52:00,
2013-02-08 20:57:00,33.9,32.9,29.45,NNE,19,0.0,0.0,96,0.00,,,0.00,VWS V14.01,2013-02-09 01:57:00,
2013-02-08 21:02:00,33.8,32.8,29.47,NNE,19,0.0,0.0,96,0.00,,,0.00,VWS V14.01,2013-02-09 02:02:00,
2013-02-08 21:07:00,33.8,32.8,29.47,NNE,19,0.0,0.0,96,0.00,,,0.00,VWS V14.01,2013-02-09 02:07:00,
2013-02-08 21:12:00,33.7,32.7,29.47,NNE,19,0.0,0.0,96,0.00,,,0.00,VWS V14.01,2013-02-09 02:12:00,
2013-02-08 21:17:00,33.5,32.5,29.47,NNE,19,0.0,0.0,96,0.00,,,0.00,VWS V14.01,2013-02-09 02:17:00,
2013-02-08 21:22:00,33.3,32.3,29.47,NNE,19,0.0,0.0,96,0.00,,,0.00,VWS V14.01,2013-02-09 02:22:00,
2013-02-08 21:27:00,33.2,32.2,29.47,NNE,19,0.0,0.0,96,0.00,,,0.00,VWS V14.01,2013-02-09 02:27:00,
2013-02-08 21:32:00,32.9,31.9,29.48,NNE,19,0.0,0.0,96,0.00,,,0.00,VWS V14.01,2013-02-09 02:32:00,
2013-02-08 21:37:00,32.8,31.8,29.48,NNE,19,0.0,0.0,96,0.00,,,0.00,VWS V14.01,2013-02-09 02:37:00,
2013-02-08 21:42:00,32.5,31.5,29.48,NNE,19,0.0,0.0,96,0.00,,,0.00,VWS V14.01,2013-02-09 02:42:00,
2013-02-08 22:00:00,31.6,30.6,29.49,North,0,0.0,0.0,96,0.00,,,0.00,VWS V14.01,2013-02-09 03:00:00,
2013-02-08 22:30:00,30.4,29.4,29.47,North,0,0.0,0.0,96,0.00,,,0.00,VWS V14.01,2013-02-09 03:30:00,
2013-02-08 23:00:00,29.4,28.1,29.47,North,0,0.0,0.0,95,0.00,,,0.00,VWS V14.01,2013-02-09 04:00:00,
2013-02-08 23:30:00,28.3,27.0,29.49,North,0,0.0,0.0,95,0.00,,,0.00,VWS V14.01,2013-02-09 04:30:00,